WZZ84LZ EPGD-EYVI

Flight info

Callsign WZZ84LZ
Flight time 0h 45m
Altitude 31000
Route NIKMI DCT BISWE DCT BOKSU DCT IRKAL
Aircraft A321/M-SDE3FGHIRWY/LB1

Departure

Time 2026-05-05 01:52
Airport Gdańsk Lech Wałęsa Airport (EPGD)

Arrival

Time 2026-05-05 02:37
Airport Vilnius International Airport (EYVI)
Time Latitude Longitude Altitude Speed Heading
2026-05-05 01:29 54.38114 18.46618 460 ft 0 kts 23°
2026-05-05 01:31 54.38177 18.46380 461 ft 0 kts 23°
2026-05-05 01:31 54.38159 18.46443 461 ft 16 kts 23°
2026-05-05 01:32 54.38158 18.46442 460 ft 0 kts 23°
2026-05-05 01:42 54.38157 18.46442 459 ft 2 kts 23°
2026-05-05 01:42 54.38136 18.46421 459 ft 4 kts 49°
2026-05-05 01:42 54.38126 18.46384 459 ft 4 kts 98°
2026-05-05 01:43 54.38128 18.46366 459 ft 0 kts 113°
2026-05-05 01:46 54.38126 18.46374 459 ft 1 kts 113°
2026-05-05 01:46 54.38120 18.46398 459 ft 3 kts 113°
2026-05-05 01:46 54.38111 18.46435 459 ft 4 kts 113°
2026-05-05 01:46 54.38098 18.46487 459 ft 5 kts 113°
2026-05-05 01:47 54.38082 18.46553 459 ft 7 kts 113°
2026-05-05 01:47 54.38052 18.46611 459 ft 7 kts 159°
2026-05-05 01:47 54.37994 18.46592 459 ft 13 kts 199°
2026-05-05 01:47 54.37921 18.46675 459 ft 15 kts 111°
2026-05-05 01:48 54.37880 18.46847 459 ft 16 kts 113°
2026-05-05 01:48 54.37834 18.47029 457 ft 17 kts 112°
2026-05-05 01:48 54.37786 18.47223 458 ft 18 kts 112°
2026-05-05 01:48 54.37736 18.47426 461 ft 18 kts 114°
2026-05-05 01:49 54.37687 18.47619 462 ft 17 kts 114°
2026-05-05 01:49 54.37644 18.47798 468 ft 16 kts 112°
2026-05-05 01:49 54.37602 18.47967 469 ft 15 kts 113°
2026-05-05 01:49 54.37553 18.48166 475 ft 21 kts 113°
2026-05-05 01:50 54.37488 18.48428 479 ft 26 kts 113°
2026-05-05 01:50 54.37412 18.48735 486 ft 29 kts 111°
2026-05-05 01:50 54.37336 18.49039 489 ft 21 kts 113°
2026-05-05 01:50 54.37261 18.49148 495 ft 15 kts 185°
2026-05-05 01:51 54.37175 18.49044 494 ft 16 kts 248°
2026-05-05 01:51 54.37222 18.48783 490 ft 46 kts 292°
2026-05-05 01:51 54.37460 18.47816 470 ft 126 kts 293°
2026-05-05 01:51 54.37867 18.46158 567 ft 166 kts 292°
2026-05-05 01:52 54.38273 18.44456 1356 ft 156 kts 292°
2026-05-05 01:52 54.38701 18.42707 1957 ft 160 kts 292°
2026-05-05 01:52 54.39147 18.40916 2507 ft 171 kts 293°
2026-05-05 01:52 54.39642 18.38925 2767 ft 192 kts 292°
2026-05-05 01:53 54.40194 18.36704 2947 ft 214 kts 293°
2026-05-05 01:53 54.40799 18.34251 3316 ft 228 kts 293°
2026-05-05 01:53 54.41416 18.31746 4073 ft 228 kts 292°
2026-05-05 01:53 54.41892 18.29157 4789 ft 229 kts 271°
2026-05-05 01:54 54.41466 18.26576 5470 ft 231 kts 233°
2026-05-05 01:54 54.40174 18.24944 6158 ft 236 kts 206°
2026-05-05 01:54 54.38662 18.23837 6883 ft 237 kts 205°
2026-05-05 01:54 54.37128 18.22883 7564 ft 241 kts 193°
2026-05-05 01:55 54.35437 18.23152 8180 ft 253 kts 159°
2026-05-05 01:55 54.33992 18.25082 8464 ft 281 kts 127°
2026-05-05 01:55 54.33020 18.28130 8803 ft 299 kts 116°
2026-05-05 01:55 54.32200 18.31459 9390 ft 306 kts 112°
2026-05-05 01:56 54.31695 18.35025 10002 ft 313 kts 96°
2026-05-05 01:56 54.31711 18.38796 10427 ft 327 kts 83°
2026-05-05 01:56 54.32119 18.42752 10561 ft 348 kts 79°
2026-05-05 01:56 54.32558 18.46955 10706 ft 369 kts 80°
2026-05-05 01:57 54.32986 18.51310 11149 ft 378 kts 81°
2026-05-05 01:57 54.33363 18.55782 11721 ft 382 kts 86°
2026-05-05 01:57 54.33278 18.60343 12272 ft 386 kts 99°
2026-05-05 01:57 54.32634 18.64799 12845 ft 386 kts 112°
2026-05-05 01:58 54.31584 18.69054 13426 ft 389 kts 116°
2026-05-05 01:58 54.30506 18.73320 14029 ft 392 kts 116°
2026-05-05 01:58 54.29427 18.77630 14633 ft 396 kts 116°
2026-05-05 01:58 54.28342 18.81979 15197 ft 399 kts 116°
2026-05-05 01:59 54.27249 18.86357 15761 ft 402 kts 116°
2026-05-05 01:59 54.26156 18.90714 16306 ft 405 kts 116°
2026-05-05 01:59 54.25035 18.95163 16844 ft 409 kts 117°
2026-05-05 01:59 54.23905 18.99631 17370 ft 412 kts 117°
2026-05-05 02:00 54.22758 19.04153 17891 ft 416 kts 117°
2026-05-05 02:00 54.21602 19.08706 18397 ft 419 kts 117°
2026-05-05 02:00 54.20549 19.13370 18883 ft 425 kts 109°
2026-05-05 02:00 54.19934 19.18338 19371 ft 432 kts 99°
2026-05-05 02:01 54.19673 19.23468 19864 ft 435 kts 97°
2026-05-05 02:01 54.19425 19.28569 20354 ft 438 kts 97°
2026-05-05 02:01 54.19166 19.33778 20834 ft 441 kts 97°
2026-05-05 02:01 54.18901 19.39009 21297 ft 444 kts 97°
2026-05-05 02:02 54.18628 19.44277 21756 ft 447 kts 97°
2026-05-05 02:02 54.18350 19.49576 22189 ft 449 kts 97°
2026-05-05 02:02 54.18065 19.54902 22614 ft 451 kts 97°
2026-05-05 02:02 54.17777 19.60241 23028 ft 454 kts 97°
2026-05-05 02:03 54.17485 19.65618 23418 ft 456 kts 97°
2026-05-05 02:03 54.17192 19.71024 23800 ft 459 kts 97°
2026-05-05 02:03 54.16897 19.76382 24180 ft 461 kts 97°
2026-05-05 02:03 54.16593 19.81854 24563 ft 463 kts 97°
2026-05-05 02:04 54.16289 19.87325 24923 ft 465 kts 97°
2026-05-05 02:04 54.15978 19.92836 25258 ft 468 kts 97°
2026-05-05 02:04 54.15665 19.98375 25591 ft 471 kts 97°
2026-05-05 02:04 54.15350 20.03950 25915 ft 473 kts 97°
2026-05-05 02:05 54.15032 20.09547 26232 ft 476 kts 97°
2026-05-05 02:05 54.14709 20.15179 26551 ft 478 kts 97°
2026-05-05 02:05 54.14379 20.20839 26872 ft 481 kts 97°
2026-05-05 02:05 54.14045 20.26458 27141 ft 484 kts 97°
2026-05-05 02:06 54.13703 20.32178 27440 ft 486 kts 97°
2026-05-05 02:06 54.13363 20.37913 27720 ft 488 kts 97°
2026-05-05 02:06 54.13016 20.43683 27995 ft 491 kts 97°
2026-05-05 02:06 54.12661 20.49490 28260 ft 494 kts 97°
2026-05-05 02:07 54.12301 20.55329 28535 ft 496 kts 97°
2026-05-05 02:07 54.11940 20.61176 28800 ft 498 kts 97°
2026-05-05 02:07 54.11698 20.65061 28986 ft 499 kts 97°
2026-05-05 02:07 54.11202 20.72962 29347 ft 502 kts 98°
2026-05-05 02:08 54.10830 20.78819 29594 ft 505 kts 98°
2026-05-05 02:08 54.10450 20.84770 29904 ft 506 kts 98°
2026-05-05 02:08 54.10244 20.90750 30266 ft 506 kts 90°
2026-05-05 02:08 54.10531 20.96721 30623 ft 506 kts 81°
2026-05-05 02:09 54.11160 21.02615 30883 ft 506 kts 79°
2026-05-05 02:09 54.11583 21.06523 30924 ft 502 kts 79°
2026-05-05 02:09 54.12801 21.18059 30945 ft 491 kts 80°
2026-05-05 02:10 54.13977 21.29515 30941 ft 490 kts 81°
2026-05-05 02:10 54.15325 21.42810 30944 ft 489 kts 81°
2026-05-05 02:11 54.16288 21.52310 30944 ft 489 kts 81°
2026-05-05 02:11 54.17438 21.63748 30951 ft 489 kts 81°
2026-05-05 02:12 54.19325 21.82791 30956 ft 490 kts 81°
2026-05-05 02:13 54.20262 21.92393 30959 ft 490 kts 81°
2026-05-05 02:13 54.21364 22.03716 30961 ft 489 kts 81°
2026-05-05 02:14 54.22465 22.15196 30959 ft 489 kts 81°
2026-05-05 02:14 54.23552 22.26650 30956 ft 489 kts 82°
2026-05-05 02:15 54.24628 22.38124 30955 ft 489 kts 81°
2026-05-05 02:15 54.25697 22.49593 30954 ft 489 kts 82°
2026-05-05 02:15 54.26219 22.55263 30840 ft 488 kts 82°
2026-05-05 02:16 54.26742 22.60987 30588 ft 484 kts 82°
2026-05-05 02:16 54.27257 22.66669 30338 ft 482 kts 82°
2026-05-05 02:16 54.27771 22.72327 30086 ft 481 kts 82°
2026-05-05 02:16 54.28281 22.77964 29830 ft 479 kts 82°
2026-05-05 02:17 54.28786 22.83598 29587 ft 478 kts 82°
2026-05-05 02:17 54.29283 22.89197 29314 ft 475 kts 82°
2026-05-05 02:17 54.29775 22.94776 28756 ft 473 kts 82°
2026-05-05 02:17 54.30257 23.00261 28209 ft 471 kts 82°
2026-05-05 02:18 54.30772 23.05769 27716 ft 468 kts 78°
2026-05-05 02:18 54.31573 23.11143 27231 ft 464 kts 74°
2026-05-05 02:18 54.32413 23.16462 26724 ft 460 kts 74°
2026-05-05 02:18 54.33243 23.21740 26239 ft 457 kts 75°
2026-05-05 02:19 54.34061 23.26970 25770 ft 453 kts 75°
2026-05-05 02:19 54.34871 23.32178 25296 ft 450 kts 75°
2026-05-05 02:19 54.35669 23.37340 24845 ft 446 kts 75°
2026-05-05 02:19 54.36456 23.42452 24400 ft 443 kts 75°
2026-05-05 02:20 54.37226 23.47478 23967 ft 440 kts 75°
2026-05-05 02:20 54.38001 23.52531 23526 ft 437 kts 75°
2026-05-05 02:20 54.38769 23.57552 23102 ft 434 kts 75°
2026-05-05 02:20 54.39529 23.62541 22679 ft 431 kts 75°
2026-05-05 02:21 54.40280 23.67493 22248 ft 428 kts 76°
2026-05-05 02:21 54.41023 23.72423 21809 ft 425 kts 76°
2026-05-05 02:21 54.41759 23.77318 21374 ft 422 kts 76°
2026-05-05 02:21 54.42488 23.82171 20931 ft 419 kts 76°
2026-05-05 02:22 54.43212 23.86996 20481 ft 416 kts 76°
2026-05-05 02:22 54.43931 23.91803 20031 ft 413 kts 76°
2026-05-05 02:22 54.44635 23.96509 19574 ft 410 kts 76°
2026-05-05 02:22 54.45340 24.01228 19119 ft 408 kts 76°
2026-05-05 02:23 54.46043 24.05944 18655 ft 405 kts 76°
2026-05-05 02:23 54.46732 24.10609 18198 ft 402 kts 76°
2026-05-05 02:23 54.47415 24.15247 17733 ft 399 kts 76°
2026-05-05 02:23 54.48192 24.19810 17267 ft 397 kts 69°
2026-05-05 02:24 54.49396 24.24038 16816 ft 392 kts 57°
2026-05-05 02:24 54.50980 24.27827 16377 ft 387 kts 51°
2026-05-05 02:24 54.52588 24.31421 15996 ft 383 kts 51°
2026-05-05 02:24 54.54206 24.35040 15510 ft 381 kts 50°
2026-05-05 02:25 54.55818 24.38665 15015 ft 380 kts 51°
2026-05-05 02:25 54.57417 24.42282 14534 ft 378 kts 51°
2026-05-05 02:25 54.59004 24.45881 14065 ft 376 kts 51°
2026-05-05 02:25 54.60578 24.49455 13637 ft 373 kts 51°
2026-05-05 02:26 54.62137 24.52996 13201 ft 370 kts 51°
2026-05-05 02:26 54.63688 24.56521 12765 ft 367 kts 51°
2026-05-05 02:26 54.65227 24.60015 12333 ft 364 kts 51°
2026-05-05 02:26 54.66723 24.63424 11913 ft 361 kts 51°
2026-05-05 02:27 54.68234 24.66879 11485 ft 358 kts 51°
2026-05-05 02:27 54.69728 24.70295 11218 ft 351 kts 51°
2026-05-05 02:27 54.71168 24.73602 11082 ft 339 kts 51°
2026-05-05 02:27 54.72562 24.76811 10905 ft 330 kts 51°
2026-05-05 02:28 54.73929 24.79958 10595 ft 326 kts 51°
2026-05-05 02:28 54.75295 24.83088 10179 ft 325 kts 50°
2026-05-05 02:28 54.76653 24.86201 9841 ft 323 kts 51°
2026-05-05 02:28 54.78003 24.89311 9463 ft 321 kts 51°
2026-05-05 02:29 54.79328 24.92378 9128 ft 318 kts 51°
2026-05-05 02:29 54.80638 24.95411 8753 ft 317 kts 50°
2026-05-05 02:29 54.81958 24.98468 8392 ft 316 kts 51°
2026-05-05 02:29 54.83266 25.01502 8063 ft 313 kts 51°
2026-05-05 02:30 54.84565 25.04516 7709 ft 311 kts 50°
2026-05-05 02:30 54.85673 25.07728 7359 ft 311 kts 66°
2026-05-05 02:30 54.86207 25.11349 7017 ft 310 kts 85°
2026-05-05 02:30 54.86116 25.15052 6670 ft 306 kts 103°
2026-05-05 02:31 54.85620 25.18609 6442 ft 299 kts 105°
2026-05-05 02:31 54.85145 25.21979 6129 ft 284 kts 105°
2026-05-05 02:31 54.84644 25.25254 5557 ft 278 kts 113°
2026-05-05 02:31 54.83940 25.28321 5035 ft 269 kts 114°
2026-05-05 02:32 54.83269 25.31224 4681 ft 248 kts 114°
2026-05-05 02:32 54.82599 25.33924 4102 ft 243 kts 122°
2026-05-05 02:32 54.81583 25.36065 3874 ft 215 kts 142°
2026-05-05 02:32 54.80415 25.37403 3772 ft 192 kts 160°
2026-05-05 02:33 54.79202 25.38101 3609 ft 177 kts 175°
2026-05-05 02:33 54.78012 25.38253 3441 ft 168 kts 189°
2026-05-05 02:33 54.76897 25.37924 3251 ft 163 kts 202°
2026-05-05 02:33 54.75847 25.37228 3051 ft 161 kts 207°
2026-05-05 02:34 54.74806 25.36502 2839 ft 161 kts 207°
2026-05-05 02:34 54.73769 25.35780 2628 ft 161 kts 206°
2026-05-05 02:34 54.72729 25.35054 2411 ft 161 kts 206°
2026-05-05 02:34 54.71687 25.34328 2199 ft 162 kts 206°
2026-05-05 02:35 54.70644 25.33602 2004 ft 162 kts 206°
2026-05-05 02:35 54.69602 25.32877 1772 ft 162 kts 206°
2026-05-05 02:35 54.68567 25.32156 1557 ft 162 kts 205°
2026-05-05 02:35 54.67522 25.31430 1351 ft 159 kts 205°
2026-05-05 02:36 54.66524 25.30736 1117 ft 152 kts 205°
2026-05-05 02:36 54.65554 25.30058 923 ft 150 kts 205°
2026-05-05 02:36 54.64590 25.29401 713 ft 148 kts 204°
2026-05-05 02:36 54.63699 25.28768 628 ft 123 kts 202°
2026-05-05 02:37 54.63155 25.28396 618 ft 54 kts 202°
2026-05-05 02:37 54.62868 25.28194 599 ft 37 kts 202°
2026-05-05 02:37 54.62664 25.28056 599 ft 29 kts 203°
2026-05-05 02:37 54.62488 25.27935 602 ft 26 kts 201°
2026-05-05 02:38 54.62419 25.27813 610 ft 12 kts 285°
2026-05-05 02:38 54.62479 25.27713 612 ft 13 kts 323°
2026-05-05 02:38 54.62569 25.27682 602 ft 16 kts 22°
2026-05-05 02:38 54.62675 25.27761 601 ft 17 kts 23°
2026-05-05 02:39 54.62789 25.27841 601 ft 18 kts 22°
2026-05-05 02:39 54.62903 25.27918 603 ft 17 kts 20°
2026-05-05 02:39 54.63010 25.27989 606 ft 16 kts 22°